Regional Weather Roundup
Issued by NWS

Home | Current Version | Previous Version | Graphics & Text | Print | Product List | Glossary On
Versions: 1 2 3 4 5 6 7 8 9 10 11 12 13 14 15 16 17 18 19 20 21 22 23 24 25 26 27 28 29 30 31 32 33 34 35 36 37 38 39 40 41 42 43 44 45 46 47 48 49 50
000
ASUS43 KMPX 212010
RWRMN
WEATHER ROUNDUP FOR MINNESOTA
NATIONAL WEATHER SERVICE TWIN CITIES/CHANHASSEN MN
200 PM CST FRI NOV 21 2014


NOTE: "FAIR" INDICATES FEW OR NO CLOUDS BELOW 12,000 FEET WITH NO
SIGNIFICANT WEATHER AND/OR OBSTRUCTIONS TO VISIBILITY. N/A MEANS
CURRENT SKY AND/OR WEATHER CONDITIONS ARE NOT AVAILABLE.

MNZ060>063-068>070-212100-
   Twin Cities Metro

CITY           SKY/WX    TMP DP  RH WIND       PRES   REMARKS
TWIN CITIES    PTSUNNY   27  16  63 S20G26    30.06F WCI  13
ST PAUL        MOSUNNY   27  17  66 S20G28    30.07F WCI  13
BLAINE         PTSUNNY  N/A N/A N/A S18G25    30.02F
LAKEVILLE      MOSUNNY   25  16  68 S13G20    30.05F WCI  13
EDEN PRAIRIE   MOSUNNY   28  18  66 S14       30.03F WCI  17
SOUTH ST PAUL  MOSUNNY   27  16  62 S14G23    30.07F WCI  16
LAKE ELMO      FAIR      28  19  69 S20       30.07F WCI  15
$$
MNZ001>005-007-008-013>017-022>024-027-028-212100-
   Northwest Minnesota

CITY           SKY/WX    TMP DP  RH WIND       PRES   REMARKS
BEMIDJI        MOSUNNY   29  19  65 S16G22    29.75F WCI  18
HALLOCK          N/A     30  25  80 S22G28    29.62F WCI  17
ROSEAU         PTSUNNY   30  21  69 SW16G25   29.65F WCI  19
WARROAD        CLOUDY    28  21  74 S13G24    29.65F WCI  18
THIEF RVR FALL MOSUNNY   28  21  74 S23       29.70F WCI  14
CROOKSTON      MOSUNNY   30  25  80 S26       29.72F WCI  16
FOSSTON        MOSUNNY   28  21  74 S21G29    29.74F WCI  15
DETROIT LAKES  SUNNY     30  23  74 S15       29.79F WCI  19
MOORHEAD       MOSUNNY   32  25  74 S20       29.79F WCI  20
PARK RAPIDS    MOSUNNY   27  19  72 S18G26    29.80F WCI  14
MAHNOMEN       FAIR      29  21  74 S20       29.76F WCI  16
$$
MNZ006-009>011-018-025>026-212100-
   North Central Minnesota

CITY           SKY/WX    TMP DP  RH WIND       PRES   REMARKS
BAUDETTE       CLOUDY    28  18  66 S14G22    29.66F WCI  17
FLAG ISLAND    CLOUDY    27  19  74 S17       29.62F WCI  14
INTL FALLS     MOSUNNY   30  16  56 S13G24    29.71F WCI  20
WASKISH        PTSUNNY   30  19  64 S7        29.72F WCI  23
BIG FORK       SUNNY     28  18  64 S21G26    29.77F WCI  15
LONGVILLE      MOSUNNY   28  18  64 S14G24    29.82F WCI  17
GRAND RAPIDS   SUNNY     28  16  59 S16G26    29.81F WCI  17
CRANE LAKE     SUNNY     27  16  63 S8        29.78F WCI  18
ORR            SUNNY     30  16  55 S10G22    29.74F WCI  21
COOK           SUNNY     28  18  64 S16G24    29.78F WCI  17
WALKER         FAIR      28  18  66 S13G22    29.79F WCI  17
$$
MNZ012-019>021-037-212100-
   Northeast Minnesota

CITY           SKY/WX    TMP DP  RH WIND       PRES   REMARKS
DULUTH         SUNNY     28  15  58 S17G29    29.89F WCI  16
ELY            SUNNY     28  18  64 S13G25    29.79F WCI  18
HIBBING        SUNNY     30  16  56 SW14G26   29.82F WCI  19
EVELETH        SUNNY     30  18  59 S15G26    29.84F WCI  19
DULUTH HARBOR  FAIR      32  18  55 SW18      29.94F WCI  20
TWO HARBORS    SUNNY     30  18  59 SW14G21   29.89F WCI  20
SILVER BAY     SUNNY     28  18  64 S16       29.88F WCI  17
GRAND MARAIS     N/A     30  22  72 SW26G39   29.93F WCI  16
G MARAIS ARPRT CLOUDY    19  12  73 S12G22    29.85F WCI   7
$$
MNZ029>031-032-039>041-046>048-054>057-064-212100-
   West Central Minnesota

CITY           SKY/WX    TMP DP  RH WIND       PRES   REMARKS
FERGUS FALLS   MOSUNNY   27  19  74 S15       29.86F WCI  15
WHEATON        PTSUNNY   30  23  74 S13       29.85F WCI  20
MORRIS         CLOUDY    28  23  80 S14       29.85F WCI  17
ALEXANDRIA     PTSUNNY   27  20  75 S17G26    29.86F WCI  14
ELBOW LAKE       N/A     28  22  79 S20       29.84F WCI  15
WADENA         MOSUNNY   27  19  74 S18       29.84F WCI  13
GLENWOOD       CLOUDY    28  21  74 S21       29.88F WCI  15
APPLETON       CLOUDY    36  25  64 S14G21    29.87F
BENSON         CLOUDY    30  23  74 S15       29.89F WCI  19
ORTONVILLE     CLOUDY    34  23  64 S13G18    29.84F WCI  25
MADISON        CLOUDY    37  28  70 SW18      29.86F
WILLMAR        FAIR      30  23  74 S7        29.94F WCI  23
$$
MNZ033>034-036-042>043-049>051-058-059-212100-
   Central Minnesota

CITY           SKY/WX    TMP DP  RH WIND       PRES   REMARKS
ST CLOUD       PTSUNNY   28  18  66 S18       29.96F WCI  15
SAUK CENTRE    FAIR      26  20  77 SE13      29.91F WCI  15
PAYNESVILLE    CLOUDY    25  19  80 SE15G23   29.94F WCI  12
AITKIN         SUNNY     30  18  59 S15       29.88F WCI  19
PINE RIVER     MOSUNNY   28  19  69 S12G22    29.88F WCI  18
BRAINERD       SUNNY     26  18  71 S18G26    29.89F WCI  13
STAPLES        MOSUNNY   27  19  74 S18G24    29.87F WCI  13
LONG PRAIRIE   FAIR      27  21  80 S15G23    29.90F WCI  15
LITTLE FALLS   PTSUNNY   28  18  64 S12G22    29.93F WCI  18
LITCHFIELD     CLOUDY    28  21  74 S9        29.96F WCI  20
BUFFALO        PTSUNNY   29  19  66 S10G21    30.01F WCI  19
MAPLE LAKE     PTSUNNY   30  21  70 S14G26    29.99F WCI  19
$$
MNZ037-044-045-052-053-212100-
   East Central Minnesota

CITY           SKY/WX    TMP DP  RH WIND       PRES   REMARKS
PRINCETON      PTSUNNY   30  19  64 S12G22    29.98F WCI  21
MORA             N/A    N/A N/A N/A MISG        N/A
CAMBRIDGE      MOSUNNY   28  18  64 S12G23    29.98F WCI  18
RUSH CITY      SUNNY     26  16  65 S13G18    30.01F WCI  15
MOOSE LAKE     SUNNY     28  16  59 S18G25    29.92F WCI  16
HINCKLEY       FAIR      27  18  69 S18       29.99F WCI  13
CLOQUET        SUNNY     27  16  63 S20G28    29.90F WCI  13
MCGREGOR       SUNNY     30  19  64 S17G28    29.90F WCI  18
$$
MNZ071>073-080-081-089-090-097-098-212100-
   Southwest Minnesota

CITY           SKY/WX    TMP DP  RH WIND       PRES   REMARKS
MONTEVIDEO     CLOUDY    36  27  69 SW15G22   29.91F
GRANITE FALLS  CLOUDY    35  26  71 S16G23    29.93F WCI  25
CANBY          CLOUDY    35  26  71 S7G17     29.87F WCI  29
MARSHALL       CLOUDY    34  23  64 SW26G37   29.88F WCI  21
REDWOOD FALLS  CLOUDY    33  24  69 S21       29.95F WCI  21
OLIVIA         CLOUDY    32  25  74 S17G23    29.93F WCI  21
PIPESTONE      PTSUNNY   30  27  86 S24       29.89F WCI  16
WINDOM         CLOUDY    30  25  80 S24G32    29.95F WCI  16
WORTHINGTON    PTSUNNY   30  25  80 S24G33    29.96F WCI  16
JACKSON        PTSUNNY   32  23  69 S18G29    30.00F WCI  20
TRACY          CLOUDY    34  26  70 S26G33    29.90F WCI  21
SLAYTON        CLOUDY    32  25  76 S25G33    29.93F WCI  19
$$
MNZ065>067-074>077-082>085-091>093-212100-
   South Central Minnesota

CITY           SKY/WX    TMP DP  RH WIND       PRES   REMARKS
MANKATO        PTSUNNY   28  18  64 S20G28    30.03F WCI  15
NEW ULM        CLOUDY    28  21  74 S20G30    30.00F WCI  15
ST JAMES       PTSUNNY   30  23  74 S21G28    30.02F WCI  17
FAIRMONT       PTSUNNY   28  19  69 S23       30.03F WCI  14
GLENCOE        PTSUNNY   28  22  76 S10G20    30.00F WCI  19
FARIBAULT      PTSUNNY   27  18  69 S16G24    30.06F WCI  14
OWATONNA       PTSUNNY   25  16  68 S23       30.06F WCI  10
WASECA         PTSUNNY   27  18  69 S20G25    30.07F WCI  13
ALBERT LEA     CLOUDY    27  19  74 S16       30.08F WCI  14
$$
MNZ078>079-086>088-094>096-212100-
   Southeast Minnesota

CITY           SKY/WX    TMP DP  RH WIND       PRES   REMARKS
ROCHESTER      MOSUNNY   23  14  68 S18       30.11F WCI   9
RED WING       SUNNY     30  14  51 S9G20     30.10F WCI  22
STANTON        MOSUNNY   26  16  66 S13       30.06F WCI  14
DODGE CENTER   MOSUNNY   25  18  74 S25       30.08F WCI   9
WINONA         MOSUNNY   30  12  47 S7        30.18F WCI  23
AUSTIN         PTSUNNY   25  18  74 S16G25    30.10F WCI  12
PRESTON        SUNNY     23  13  65 S16G25    30.14F WCI  10
$$
ABBREVIATIONS USED IN REMARKS
   TC - TEMPERATURES IN CELSIUS
  WCI - WIND CHILL INDEX
   HX - HEAT INDEX
  VSB - VISIBILITY
$$



USA.gov is the U.S. government's official web portal to all federal, state and local government web resources and services.